QPF
0.00 0.00 0.00 0.00 0.00 0.00 0.00 0.00 0.02 0.00 0.00 0.00 0.00 0.00 0.00 0.00 0.00 0.00 0.00 0.00 0.00 0.00 0.00 0.00 0.00 0.00 0.00 0.00 0.00 0.00 0.00 0.00 0.00 0.00 0.00 0.00 0.00 0.00 0.00 0.00 0.00 0.00 0.00 0.00
0.00 0.00 0.00 0.00 0.00 0.00 0.00 0.00 0.01 0.00 0.01 0.00 0.00 0.00 0.00 0.00 0.00 0.00 0.00 0.00 0.00 0.00 0.00 0.00 0.00 0.00 0.00 0.00 0.00 0.00 0.00 0.00 0.00 0.00 0.00 0.00 0.00 0.00 0.00 0.00 0.00 0.00 0.00 0.00
0.02 0.00 0.00 0.00 0.00 0.00 0.00 0.00 0.00 0.01 0.01 0.00 0.01 0.02 0.02 0.02 0.02 0.02 0.01 0.00 0.00 0.00 0.00 0.00 0.00 0.00 0.00 0.00 0.00 0.00 0.00 0.00 0.00 0.00 0.00 0.00 0.00 0.00 0.00 0.00 0.00 0.00 0.00 0.00
0.05 0.02 0.03 0.00 0.00 0.00 0.00 0.00 0.00 0.01 0.00 0.00 0.00 0.00 0.00 0.00 0.00 0.00 0.00 0.00 0.00 0.00 0.00 0.00 0.00 0.00 0.00 0.00 0.00 0.00 0.00 0.00 0.00 0.00 0.00 0.00 0.00 0.00 0.00 0.00 0.00 0.00 0.00 0.00
0.07 0.03 0.01 0.00 0.00 0.00 0.00 0.00 0.00 0.00 0.00 0.00 0.00 0.00 0.00 0.00 0.00 0.00 0.00 0.00 0.00 0.00 0.00 0.00 0.00 0.00 0.00 0.00 0.00 0.00 0.00 0.00 0.00 0.00 0.00 0.00 0.00 0.00 0.00 0.00 0.00 0.00 0.00 0.00
0.07 0.05 0.03 0.02 0.00 0.00 0.00 0.00 0.00 0.00 0.00 0.00 0.00 0.00 0.00 0.00 0.00 0.00 0.00 0.00 0.00 0.00 0.00 0.00 0.00 0.00 0.00 0.00 0.00 0.00 0.00 0.00 0.00 0.00 0.00 0.00 0.00 0.00 0.00 0.00 0.00 0.00 0.00 0.00
0.06 0.06 0.06 0.04 0.01 0.00 0.00 0.00 0.00 0.00 0.00 0.00 0.00 0.00 0.00 0.00 0.00 0.00 0.00 0.00 0.00 0.00 0.00 0.00 0.00 0.00 0.00 0.00 0.00 0.00 0.00 0.00 0.00 0.00 0.00 0.00 0.00 0.00 0.00 0.00 0.00 0.00 0.00 0.00
0.03 0.04 0.05 0.01 0.00 0.00 0.00 0.00 0.00 0.00 0.00 0.00 0.00 0.00 0.00 0.00 0.00 0.00 0.00 0.00 0.00 0.00 0.00 0.00 0.00 0.00 0.00 0.00 0.00 0.00 0.00 0.00 0.00 0.00 0.00 0.00 0.00 0.00 0.00 0.00 0.00 0.00 0.00 0.00
0.01 0.02 0.01 0.00 0.00 0.00 0.00 0.00 0.00 0.00 0.00 0.00 0.00 0.00 0.00 0.00 0.00 0.00 0.00 0.00 0.00 0.00 0.00 0.00 0.00 0.00 0.00 0.00 0.00 0.00 0.00 0.00 0.00 0.00 0.00 0.00 0.00 0.00 0.00 0.00 0.00 0.00 0.00 0.00
0.00 0.00 0.00 0.00 0.00 0.00 0.00 0.00 0.00 0.00 0.00 0.00 0.00 0.00 0.00 0.00 0.00 0.00 0.00 0.00 0.00 0.00 0.00 0.00 0.00 0.00 0.00 0.00 0.00 0.00 0.00 0.00 0.00 0.00 0.00 0.00 0.00 0.00 0.00 0.00 0.00 0.00 0.00 0.00
0.00 0.00 0.00 0.00 0.00 0.00 0.00 0.00 0.00 0.00 0.00 0.00 0.00 0.00 0.00 0.00 0.00 0.00 0.00 0.00 0.00 0.00 0.00 0.00 0.00 0.00 0.00 0.00 0.00 0.00 0.00 0.00 0.00 0.00 0.00 0.00 0.00 0.00 0.00 0.00 0.00 0.00 0.00 0.00
0.00 0.00 0.00 0.00 0.00 0.00 0.00 0.00 0.00 0.00 0.00 0.00 0.00 0.00 0.00 0.00 0.00 0.00 0.00 0.00 0.00 0.00 0.00 0.00 0.00 0.00 0.00 0.00 0.00 0.00 0.00 0.00 0.00 0.00 0.00 0.00 0.00 0.00 0.00 0.00 0.01 0.01 0.01 0.03
0.00 0.00 0.00 0.00 0.00 0.00 0.00 0.00 0.00 0.00 0.00 0.00 0.00 0.00 0.00 0.00 0.00 0.00 0.00 0.00 0.00 0.00 0.00 0.00 0.00 0.00 0.00 0.00 0.00 0.00 0.00 0.00 0.00 0.00 0.00 0.00 0.00 0.00 0.00 0.00 0.00 0.00 0.00 0.00
0.00 0.01 0.01 0.00 0.00 0.00 0.00 0.00 0.00 0.00 0.00 0.00 0.00 0.00 0.00 0.00 0.00 0.00 0.00 0.00 0.00 0.01 0.01 0.00 0.00 0.00 0.00 0.00 0.00 0.00 0.00 0.00 0.01 0.01 0.01 0.00 0.00 0.00 0.00 0.00 0.00 0.00 0.00 0.00
0.00 0.00 0.01 0.00 0.00 0.00 0.00 0.00 0.00 0.00 0.00 0.00 0.00 0.00 0.01 0.01 0.00 0.00 0.00 0.00 0.00 0.01 0.00 0.00 0.01 0.00 0.00 0.00 0.00 0.00 0.00 0.00 0.00 0.00 0.00 0.00 0.00 0.00 0.00 0.00 0.00 0.00 0.00 0.00
0.00 0.00 0.00 0.00 0.00 0.00 0.00 0.00 0.01 0.00 0.00 0.00 0.01 0.01 0.01 0.00 0.00 0.00 0.00 0.00 0.01 0.01 0.00 0.00 0.00 0.00 0.00 0.00 0.00 0.00 0.00 0.00 0.01 0.02 0.01 0.00 0.00 0.00 0.00 0.00 0.00 0.00 0.00 0.00
0.01 0.01 0.01 0.00 0.00 0.00 0.00 0.00 0.01 0.01 0.01 0.01 0.01 0.00 0.00 0.00 0.00 0.00 0.00 0.00 0.01 0.00 0.00 0.00 0.00 0.00 0.00 0.00 0.00 0.00 0.00 0.00 0.00 0.01 0.01 0.01 0.00 0.00 0.00 0.00 0.00 0.00 0.00 0.00
0.00 0.00 0.00 0.00 0.00 0.01 0.00 0.00 0.00 0.00 0.00 0.00 0.00 0.00 0.00 0.00 0.01 0.01 0.00 0.01 0.01 0.01 0.00 0.00 0.00 0.00 0.00 0.00 0.00 0.00 0.00 0.00 0.00 0.00 0.00 0.00 0.00 0.01 0.00 0.00 0.00 0.00 0.00 0.00
0.00 0.00 0.00 0.00 0.00 0.00 0.00 0.00 0.00 0.00 0.00 0.00 0.00 0.00 0.00 0.00 0.00 0.00 0.00 0.00 0.00 0.00 0.00 0.00 0.00 0.01 0.01 0.01 0.01 0.03 0.01 0.00 0.00 0.00 0.00 0.00 0.01 0.01 0.00 0.00 0.00 0.00 0.00 0.00
0.00 0.00 0.00 0.00 0.00 0.00 0.00 0.00 0.00 0.00 0.00 0.00 0.00 0.00 0.00 0.00 0.00 0.00 0.00 0.00 0.00 0.00 0.00 0.01 0.02 0.02 0.00 0.00 0.01 0.02 0.02 0.01 0.00 0.00 0.00 0.00 0.00 0.00 0.00 0.00 0.01 0.00 0.00 0.00
0.00 0.00 0.00 0.00 0.00 0.00 0.00 0.00 0.00 0.00 0.00 0.00 0.00 0.00 0.00 0.00 0.00 0.00 0.00 0.00 0.00 0.00 0.01 0.02 0.01 0.00 0.00 0.00 0.00 0.00 0.00 0.00 0.00 0.00 0.00 0.00 0.01 0.00 0.00 0.00 0.00 0.00 0.00 0.00
0.00 0.00 0.00 0.00 0.00 0.00 0.00 0.00 0.00 0.00 0.00 0.00 0.00 0.00 0.00 0.00 0.00 0.00 0.00 0.00 0.00 0.00 0.04 0.02 0.00 0.01 0.06 0.05 0.06 0.03 0.01 0.01 0.00 0.00 0.00 0.00 0.00 0.00 0.00 0.00 0.00 0.00 0.00 0.00
0.00 0.00 0.00 0.00 0.00 0.00 0.00 0.00 0.00 0.00 0.00 0.00 0.00 0.00 0.00 0.00 0.00 0.01 0.01 0.01 0.01 0.01 0.06 0.01 0.00 0.05 0.09 0.00 0.01 0.03 0.03 0.03 0.01 0.01 0.00 0.00 0.00 0.00 0.00 0.00 0.00 0.00 0.00 0.00
0.00 0.00 0.00 0.00 0.00 0.00 0.00 0.00 0.00 0.00 0.00 0.00 0.00 0.00 0.01 0.01 0.00 0.00 0.01 0.01 0.01 0.02 0.01 0.00 0.02 0.05 0.02 0.00 0.00 0.00 0.00 0.00 0.01 0.01 0.01 0.01 0.01 0.01 0.01 0.00 0.00 0.00 0.00 0.00
0.00 0.00 0.00 0.00 0.00 0.00 0.00 0.00 0.00 0.00 0.00 0.00 0.00 0.00 0.00 0.00 0.01 0.01 0.00 0.00 0.01 0.01 0.00 0.01 0.02 0.02 0.00 0.00 0.00 0.00 0.00 0.00 0.00 0.00 0.00 0.00 0.00 0.00 0.00 0.00 0.00 0.00 0.00 0.00
0.00 0.00 0.00 0.00 0.00 0.00 0.00 0.00 0.00 0.00 0.00 0.00 0.00 0.00 0.00 0.00 0.00 0.00 0.00 0.00 0.00 0.00 0.00 0.00 0.01 0.01 0.00 0.00 0.00 0.00 0.00 0.00 0.00 0.00 0.00 0.00 0.00 0.00 0.00 0.00 0.00 0.00 0.00 0.00
0.00 0.00 0.00 0.00 0.00 0.00 0.00 0.01 0.00 0.00 0.00 0.01 0.02 0.00 0.00 0.00 0.00 0.00 0.00 0.00 0.00 0.00 0.00 0.00 0.00 0.00 0.00 0.00 0.00 0.00 0.00 0.00 0.00 0.00 0.00 0.00 0.00 0.00 0.00 0.00 0.00 0.00 0.00 0.00
MSLP
1016.39 1017.66 1018.61 1019.10 1019.85 1020.18 1019.77 1018.55 1018.74 1017.68 1019.96 1021.84 1023.40 1024.79 1026.05 1027.10 1027.91 1028.27 1028.60 1029.04 1029.63 1030.17 1030.75 1031.34 1031.89 1032.33 1032.68 1032.91 1033.07 1033.24 1033.42 1033.36 1033.20 1033.08 1032.89 1032.68 1032.59 1032.47 1032.30 1032.14 1032.00 1031.94 1031.84 1031.64
1017.20 1018.08 1019.09 1019.80 1020.72 1021.05 1020.96 1020.60 1020.67 1021.37 1022.09 1024.53 1025.89 1026.34 1027.19 1027.73 1028.21 1028.51 1028.83 1029.10 1029.69 1030.21 1030.72 1031.16 1031.57 1032.05 1032.50 1032.64 1032.86 1033.13 1033.17 1033.01 1032.86 1032.69 1032.49 1032.30 1032.11 1031.87 1031.69 1031.55 1031.45 1031.38 1031.20 1031.02
1017.95 1019.14 1020.18 1021.46 1022.82 1022.86 1022.90 1023.54 1024.10 1024.63 1025.70 1027.08 1027.52 1027.98 1028.57 1028.76 1028.98 1029.08 1029.33 1029.68 1030.03 1030.44 1030.82 1031.16 1031.48 1031.78 1031.95 1032.17 1032.43 1032.65 1032.72 1032.60 1032.46 1032.38 1032.20 1032.00 1031.77 1031.51 1031.26 1031.01 1030.78 1030.59 1030.43 1030.28
1019.48 1020.55 1021.95 1024.44 1025.63 1026.05 1026.09 1026.97 1027.36 1027.53 1028.47 1029.26 1029.84 1029.96 1029.90 1029.87 1029.76 1029.63 1029.93 1030.18 1030.38 1030.64 1030.81 1031.07 1031.30 1031.49 1031.67 1031.85 1031.97 1032.04 1032.02 1031.93 1031.85 1031.87 1031.74 1031.55 1031.41 1031.12 1030.75 1030.39 1030.04 1029.78 1029.58 1029.41
1020.39 1021.28 1022.55 1025.37 1027.81 1029.07 1028.98 1029.53 1029.89 1029.94 1030.29 1030.60 1030.73 1030.49 1029.28 1029.63 1030.07 1030.37 1030.53 1030.59 1030.64 1030.69 1030.74 1030.81 1030.99 1031.05 1031.21 1031.30 1031.38 1031.36 1031.17 1030.94 1030.96 1031.03 1031.04 1030.88 1030.65 1030.42 1030.11 1029.68 1029.27 1028.97 1028.77 1028.58
1022.00 1022.87 1025.06 1028.31 1029.90 1030.86 1031.16 1030.57 1031.13 1031.33 1031.15 1031.14 1030.91 1030.09 1029.27 1029.96 1030.39 1030.28 1030.31 1030.28 1030.17 1030.06 1030.20 1030.45 1030.34 1030.46 1030.54 1030.39 1030.38 1030.18 1029.95 1029.90 1029.94 1029.97 1029.91 1029.77 1029.61 1029.55 1029.33 1029.01 1028.58 1028.39 1028.04 1027.80
1024.03 1024.95 1028.20 1030.36 1030.95 1031.38 1031.34 1031.88 1031.41 1031.66 1031.44 1031.28 1030.82 1030.38 1029.58 1029.42 1029.40 1029.44 1029.38 1029.31 1029.06 1029.09 1029.15 1029.08 1029.22 1029.37 1029.27 1029.16 1028.97 1028.60 1028.84 1028.86 1028.92 1028.89 1028.84 1028.74 1028.63 1028.56 1028.50 1028.35 1028.02 1027.69 1027.39 1027.06
1027.15 1027.58 1029.93 1031.32 1031.10 1032.04 1032.08 1031.56 1031.63 1031.28 1030.98 1030.51 1030.05 1029.48 1029.13 1028.80 1028.43 1028.19 1027.83 1027.63 1027.73 1027.59 1027.46 1027.56 1027.86 1028.04 1027.78 1027.68 1027.33 1027.59 1027.72 1027.78 1027.79 1027.78 1027.77 1027.64 1027.68 1027.74 1027.69 1027.62 1027.40 1027.14 1026.92 1026.53
1031.37 1031.19 1031.61 1032.04 1032.04 1032.04 1032.25 1031.96 1031.41 1031.08 1030.74 1030.32 1029.62 1028.96 1028.47 1027.81 1027.47 1027.12 1026.94 1026.67 1026.61 1026.41 1026.18 1026.27 1026.27 1026.32 1026.20 1025.88 1026.22 1026.39 1026.52 1026.57 1026.65 1026.68 1026.67 1026.70 1026.71 1026.61 1026.62 1026.50 1026.33 1026.02 1025.78 1025.41
1032.25 1031.85 1032.00 1031.62 1031.95 1032.33 1032.05 1031.71 1031.17 1030.89 1030.30 1029.84 1029.14 1028.51 1027.81 1027.31 1026.84 1026.45 1026.15 1025.82 1025.65 1025.36 1025.00 1024.81 1025.00 1024.96 1024.83 1025.00 1025.22 1025.34 1025.31 1025.35 1025.46 1025.53 1025.48 1025.55 1025.48 1025.34 1025.28 1025.06 1024.88 1024.75 1024.60 1024.25
1033.67 1032.95 1032.26 1031.85 1031.88 1031.81 1031.47 1031.30 1030.78 1030.20 1029.82 1029.27 1028.72 1027.97 1027.51 1026.78 1026.38 1025.91 1025.47 1025.15 1024.94 1024.55 1024.13 1023.80 1023.87 1023.74 1023.78 1023.93 1024.13 1024.12 1024.20 1024.36 1024.35 1024.17 1024.13 1024.04 1023.95 1023.76 1023.80 1023.73 1023.69 1023.48 1023.26 1023.23
1034.65 1033.96 1033.56 1032.46 1032.25 1032.11 1031.88 1031.21 1030.66 1030.03 1029.30 1028.95 1028.44 1027.56 1026.97 1026.29 1025.85 1025.33 1024.86 1024.53 1024.17 1023.79 1023.41 1023.11 1023.08 1022.99 1023.05 1023.16 1023.27 1023.30 1023.22 1023.13 1023.02 1022.98 1022.92 1022.88 1022.82 1022.64 1022.46 1022.07 1021.81 1021.49 1021.09 1020.88
1035.33 1034.61 1034.42 1033.57 1033.16 1032.56 1031.93 1031.23 1030.56 1029.90 1029.20 1028.45 1027.90 1027.31 1026.61 1025.86 1025.27 1024.63 1023.87 1023.52 1023.18 1022.79 1022.65 1022.54 1022.37 1022.29 1022.31 1022.32 1022.42 1022.38 1022.29 1022.20 1022.07 1021.88 1021.75 1021.64 1021.57 1021.47 1021.17 1021.05 1020.81 1020.42 1019.95 1019.52
1035.51 1034.85 1033.84 1033.17 1032.64 1032.05 1031.57 1030.89 1030.25 1029.58 1028.90 1028.21 1027.40 1026.66 1025.98 1025.28 1024.53 1024.00 1023.45 1022.90 1022.52 1022.25 1022.02 1021.81 1021.63 1021.39 1021.24 1021.43 1021.53 1021.46 1021.36 1021.06 1020.84 1020.78 1020.78 1020.79 1020.65 1020.57 1020.49 1020.27 1019.95 1019.72 1019.56 1019.25
1035.37 1034.86 1034.10 1033.16 1032.46 1031.91 1031.42 1030.67 1029.96 1029.26 1028.55 1027.75 1027.04 1026.09 1025.12 1024.46 1023.75 1023.03 1022.42 1021.93 1021.65 1021.43 1021.11 1021.00 1020.89 1020.43 1020.50 1020.67 1020.65 1020.53 1020.46 1020.24 1020.13 1019.97 1019.78 1019.66 1019.61 1019.61 1019.62 1019.56 1019.38 1019.13 1018.90 1018.62
1035.17 1034.53 1033.82 1033.15 1032.47 1031.83 1031.17 1030.51 1029.77 1029.09 1028.44 1027.63 1026.97 1026.09 1025.35 1024.48 1023.40 1022.30 1021.52 1020.97 1020.85 1020.28 1019.96 1020.02 1019.90 1019.36 1019.55 1019.69 1019.74 1019.62 1019.50 1019.14 1018.70 1018.67 1018.72 1018.70 1018.71 1018.60 1018.44 1018.39 1018.33 1018.22 1018.07 1017.82
1034.99 1033.93 1033.46 1032.93 1032.37 1031.59 1030.95 1030.36 1029.86 1029.21 1028.48 1027.64 1027.01 1026.24 1025.32 1024.25 1023.16 1022.15 1021.28 1020.48 1019.86 1019.41 1019.20 1019.06 1018.72 1018.42 1018.50 1018.59 1018.65 1018.45 1018.25 1018.11 1017.85 1017.61 1017.47 1017.48 1017.73 1017.66 1017.57 1017.52 1017.48 1017.42 1017.26 1017.11
1035.15 1034.72 1034.01 1033.36 1032.49 1031.58 1030.76 1029.99 1029.56 1029.02 1028.32 1027.41 1026.69 1026.02 1025.11 1024.18 1023.13 1022.27 1021.37 1020.63 1019.74 1018.80 1018.27 1018.02 1017.85 1017.59 1017.32 1017.26 1017.33 1017.33 1017.20 1017.02 1016.96 1016.87 1016.77 1016.67 1016.60 1016.59 1016.62 1016.63 1016.63 1016.56 1016.39 1016.24
1034.85 1034.29 1033.63 1033.08 1032.34 1031.49 1030.83 1029.83 1029.32 1028.81 1028.05 1027.20 1026.23 1025.53 1024.79 1023.88 1022.97 1022.23 1021.38 1020.52 1019.52 1018.53 1017.77 1017.40 1016.76 1015.91 1015.78 1015.79 1015.76 1015.86 1015.62 1015.60 1015.61 1015.68 1015.83 1015.88 1015.81 1015.76 1015.75 1015.89 1015.91 1015.87 1015.77 1015.63
1034.56 1034.08 1033.44 1032.75 1032.17 1031.31 1030.66 1029.84 1029.20 1028.63 1027.89 1026.85 1026.07 1025.27 1024.45 1023.58 1022.76 1021.90 1021.15 1020.28 1019.41 1018.68 1017.67 1016.79 1015.86 1014.97 1014.82 1014.73 1014.37 1014.24 1014.26 1014.49 1014.63 1014.72 1014.90 1015.06 1015.11 1015.09 1015.06 1015.04 1015.01 1015.07 1015.01 1014.89
1034.25 1033.73 1033.13 1032.50 1031.77 1031.14 1030.58 1029.84 1028.93 1028.31 1027.56 1026.67 1025.95 1025.14 1024.24 1023.44 1022.53 1021.71 1020.77 1019.87 1018.95 1018.15 1016.76 1016.10 1015.43 1014.64 1014.00 1013.46 1013.17 1013.03 1013.04 1013.23 1013.63 1013.88 1014.17 1014.23 1014.22 1014.17 1014.42 1014.58 1014.58 1014.49 1014.30 1014.14
1034.04 1033.58 1033.02 1032.35 1031.58 1030.95 1030.34 1029.65 1028.80 1028.12 1027.36 1026.48 1025.78 1024.96 1024.05 1023.03 1022.24 1021.51 1020.77 1019.84 1018.73 1017.42 1016.39 1015.80 1015.28 1014.13 1012.93 1012.68 1012.38 1011.89 1011.98 1012.44 1012.83 1013.21 1013.41 1013.57 1013.66 1013.71 1013.76 1013.77 1013.76 1013.73 1013.66 1013.55
1033.90 1033.38 1032.78 1032.08 1031.28 1030.78 1030.08 1029.38 1028.61 1027.99 1027.16 1026.40 1025.71 1024.76 1023.98 1023.12 1022.25 1021.26 1020.20 1019.52 1018.58 1017.34 1016.31 1015.88 1014.68 1013.62 1013.23 1013.27 1012.84 1012.21 1011.77 1012.13 1012.41 1012.60 1012.78 1012.92 1013.04 1013.12 1013.16 1013.19 1013.23 1013.19 1013.09 1012.97
1033.70 1033.13 1032.49 1031.80 1031.11 1030.44 1029.59 1028.79 1028.30 1027.56 1026.93 1026.15 1025.28 1024.69 1023.83 1022.89 1022.11 1021.63 1020.67 1019.93 1018.70 1017.25 1016.76 1015.94 1014.40 1013.70 1013.80 1013.74 1013.51 1013.28 1013.02 1012.78 1012.57 1012.50 1012.46 1012.32 1012.47 1012.61 1012.70 1012.76 1012.80 1012.77 1012.65 1012.56
1033.57 1032.95 1032.15 1031.48 1030.81 1030.05 1029.32 1028.57 1027.85 1027.19 1026.54 1025.66 1024.94 1024.25 1023.77 1023.22 1022.63 1021.47 1020.88 1020.09 1019.18 1018.14 1017.59 1016.61 1015.33 1014.95 1014.82 1014.31 1014.05 1013.80 1013.62 1013.42 1013.00 1012.95 1012.85 1012.75 1012.72 1012.70 1012.68 1012.67 1012.67 1012.53 1012.35 1012.32
1033.14 1032.52 1031.85 1031.26 1030.83 1029.92 1029.11 1028.43 1027.77 1027.30 1026.27 1025.43 1024.86 1024.06 1023.68 1023.17 1022.58 1021.60 1021.01 1020.30 1019.69 1018.83 1018.22 1017.38 1016.49 1015.77 1015.63 1015.18 1014.89 1014.57 1014.24 1013.92 1013.48 1013.22 1012.88 1012.95 1012.87 1012.83 1012.71 1012.62 1012.50 1012.34 1012.16 1012.06
1033.02 1032.26 1031.37 1031.00 1030.51 1029.83 1029.06 1028.47 1028.10 1027.19 1026.58 1025.68 1024.48 1024.23 1023.83 1023.24 1022.62 1021.76 1021.15 1020.70 1020.14 1019.52 1018.77 1017.97 1017.39 1016.66 1015.99 1015.70 1015.38 1014.94 1014.53 1014.13 1013.70 1013.23 1012.95 1012.94 1012.82 1012.67 1012.56 1012.40 1012.25 1012.14 1012.01 1011.80
Thickness
5464 5435 5421 5434 5402 5391 5404 5432 5423 5468 5433 5411 5379 5355 5338 5324 5313 5310 5306 5299 5291 5282 5273 5264 5256 5249 5242 5237 5233 5229 5224 5220 5216 5212 5208 5204 5202 5198 5195 5192 5189 5184 5181 5177
5428 5410 5407 5407 5405 5392 5387 5399 5397 5396 5398 5319 5309 5315 5308 5300 5294 5290 5284 5279 5270 5261 5253 5245 5238 5230 5222 5216 5211 5207 5202 5198 5193 5189 5185 5182 5179 5176 5173 5169 5164 5160 5157 5154
5431 5382 5386 5404 5357 5369 5368 5322 5334 5360 5324 5277 5286 5286 5281 5274 5267 5262 5255 5248 5243 5235 5229 5222 5215 5209 5202 5195 5190 5184 5180 5177 5172 5165 5164 5161 5158 5154 5151 5148 5145 5143 5140 5136
5373 5365 5389 5302 5284 5290 5300 5264 5261 5270 5253 5246 5240 5236 5230 5233 5233 5232 5226 5220 5214 5208 5203 5198 5191 5184 5179 5174 5169 5164 5160 5156 5150 5145 5144 5142 5138 5135 5133 5132 5132 5130 5127 5123
5364 5361 5349 5290 5257 5244 5257 5254 5218 5230 5226 5222 5213 5207 5230 5215 5204 5199 5194 5189 5185 5180 5176 5173 5166 5160 5157 5153 5147 5143 5142 5138 5134 5131 5128 5125 5124 5121 5120 5120 5120 5118 5115 5111
5327 5335 5332 5248 5228 5208 5200 5253 5201 5194 5202 5195 5193 5209 5217 5186 5175 5174 5167 5161 5159 5157 5153 5146 5143 5137 5135 5134 5131 5131 5125 5125 5123 5120 5118 5116 5114 5111 5109 5107 5108 5105 5103 5099
5298 5299 5224 5203 5199 5194 5231 5203 5187 5174 5172 5165 5173 5173 5176 5168 5160 5152 5145 5143 5140 5136 5133 5130 5125 5120 5121 5120 5121 5117 5116 5114 5112 5110 5107 5106 5104 5101 5098 5094 5093 5092 5089 5086
5254 5251 5217 5179 5189 5178 5175 5167 5156 5159 5157 5153 5154 5154 5149 5146 5144 5140 5138 5134 5128 5127 5126 5121 5113 5109 5112 5112 5110 5107 5105 5104 5102 5099 5096 5096 5092 5088 5084 5080 5077 5075 5071 5070
5185 5181 5167 5154 5154 5148 5132 5135 5139 5135 5132 5127 5129 5131 5130 5132 5129 5126 5122 5120 5115 5114 5115 5111 5107 5103 5104 5105 5099 5097 5095 5092 5089 5087 5084 5080 5078 5075 5070 5067 5065 5063 5060 5058
5167 5162 5151 5145 5132 5120 5119 5114 5116 5110 5110 5108 5106 5110 5112 5112 5112 5111 5109 5107 5105 5104 5105 5105 5097 5094 5094 5090 5085 5083 5082 5080 5076 5073 5070 5066 5064 5062 5059 5058 5055 5052 5048 5046
5133 5131 5132 5126 5117 5111 5109 5099 5098 5098 5094 5092 5089 5094 5091 5096 5095 5094 5094 5092 5089 5089 5090 5091 5086 5084 5080 5075 5071 5071 5069 5065 5062 5061 5058 5055 5054 5052 5049 5047 5043 5041 5038 5032
5107 5106 5103 5111 5100 5089 5082 5083 5081 5079 5080 5074 5068 5072 5072 5075 5073 5073 5073 5071 5070 5070 5071 5072 5068 5066 5062 5057 5053 5053 5054 5053 5051 5047 5044 5043 5040 5039 5038 5039 5036 5036 5036 5033
5087 5082 5072 5070 5066 5060 5058 5059 5058 5055 5054 5053 5052 5046 5048 5050 5051 5051 5055 5052 5051 5051 5050 5049 5047 5045 5041 5037 5035 5036 5036 5034 5033 5032 5031 5031 5029 5027 5027 5023 5024 5025 5025 5026
5064 5060 5067 5062 5058 5050 5042 5040 5037 5033 5030 5027 5027 5028 5024 5025 5029 5027 5027 5027 5027 5026 5027 5025 5025 5026 5021 5018 5017 5018 5016 5017 5018 5016 5014 5012 5012 5011 5010 5010 5009 5009 5010 5012
5052 5045 5042 5042 5038 5031 5025 5021 5018 5015 5012 5012 5010 5012 5013 5011 5011 5012 5011 5009 5006 5005 5005 5002 5001 5003 4998 4997 4997 4997 4996 4997 4997 4998 4998 4998 4998 4996 4994 4995 4996 4997 4997 5000
5039 5034 5030 5024 5020 5014 5008 5002 4998 4994 4991 4990 4988 4989 4988 4989 4993 4998 4999 4997 4993 4996 4993 4986 4984 4985 4983 4980 4977 4978 4979 4982 4985 4985 4984 4983 4983 4986 4987 4987 4988 4990 4991 4992
5026 5028 5022 5015 5008 5003 4996 4991 4984 4979 4976 4975 4972 4971 4971 4974 4978 4982 4984 4985 4985 4984 4978 4975 4975 4975 4971 4968 4965 4967 4969 4970 4971 4974 4977 4977 4973 4975 4979 4981 4982 4983 4984 4986
5017 5009 5005 5000 4997 4995 4992 4988 4981 4975 4971 4971 4968 4964 4964 4964 4966 4967 4968 4969 4971 4975 4973 4969 4966 4966 4965 4963 4961 4960 4961 4962 4962 4964 4966 4969 4971 4973 4973 4976 4977 4979 4981 4983
5016 5010 5006 4999 4995 4992 4987 4986 4980 4974 4971 4969 4968 4964 4962 4961 4960 4958 4958 4958 4960 4964 4966 4963 4965 4969 4967 4964 4962 4960 4961 4961 4961 4962 4962 4964 4967 4969 4971 4971 4973 4975 4977 4980
5014 5008 5004 4999 4994 4991 4986 4982 4978 4972 4969 4969 4965 4962 4960 4959 4957 4956 4954 4952 4953 4954 4957 4960 4962 4966 4964 4962 4964 4965 4964 4961 4960 4961 4962 4962 4964 4966 4968 4970 4972 4973 4976 4978
5014 5008 5002 4998 4994 4989 4983 4980 4978 4972 4969 4967 4963 4960 4958 4956 4954 4952 4953 4951 4951 4951 4956 4956 4958 4962 4963 4966 4967 4967 4967 4966 4963 4962 4961 4962 4964 4966 4966 4966 4968 4972 4976 4979
5015 5006 5000 4996 4993 4988 4984 4980 4977 4972 4968 4966 4961 4958 4955 4955 4951 4947 4946 4948 4949 4953 4955 4953 4953 4959 4967 4967 4968 4971 4970 4967 4965 4963 4963 4963 4963 4965 4966 4969 4971 4974 4977 4980
5017 5009 5002 4997 4994 4988 4984 4980 4977 4972 4969 4966 4960 4958 4952 4950 4949 4948 4947 4944 4945 4949 4951 4949 4954 4960 4960 4957 4960 4965 4970 4968 4966 4965 4964 4964 4965 4966 4968 4970 4972 4975 4977 4981
5021 5013 5005 5000 4995 4990 4986 4984 4979 4976 4971 4966 4964 4957 4955 4953 4946 4939 4937 4936 4939 4946 4945 4947 4954 4957 4953 4952 4953 4955 4957 4960 4962 4963 4964 4966 4967 4968 4970 4972 4973 4975 4979 4982
5026 5019 5013 5007 5002 4995 4990 4986 4982 4978 4973 4971 4966 4960 4954 4946 4939 4938 4932 4931 4932 4936 4936 4940 4947 4946 4945 4948 4949 4951 4952 4953 4957 4958 4960 4962 4964 4966 4968 4970 4972 4976 4980 4984
5036 5028 5022 5015 5005 5001 4997 4992 4986 4977 4976 4973 4966 4964 4954 4944 4937 4934 4928 4926 4926 4928 4930 4934 4938 4941 4940 4942 4943 4945 4948 4950 4954 4956 4960 4960 4962 4964 4967 4969 4973 4977 4981 4986
5042 5037 5032 5020 5013 5006 5002 4995 4983 4980 4975 4969 4972 4961 4952 4944 4936 4931 4926 4922 4921 4922 4925 4930 4933 4937 4940 4941 4942 4945 4948 4950 4954 4958 4960 4961 4962 4965 4967 4971 4975 4978 4983 4989